Simultaneous Nadir Overpasses (SNOs) Predictions

Prediction of SNOs between NOAA-19 and TERRA Satellite Orbit:

Table of predicted SNOs for the next 14.0 days since TLE Epoch: 5/16/2015
Index Date (NOAA-19) Time (NOAA-19) Lat,Lon (NOAA-19) SZA (NOAA-19 ) Date (TERRA) Time (TERRA) Lat,Lon (TERRA) SZA (TERRA ) Distance(km) Time Diff (sec)
1 05/16/2015 18:03:58 -71.98, 92.52 127.21 05/16/2015 18:04:55 -71.99, 92.58 127.19 2.54 57
2 05/16/2015 18:54:58 71.87,-100.04 52.69 05/16/2015 18:54:23 71.85,-100.01 52.66 2.60 35
3 05/18/2015 23:38:22 71.93,-170.95 52.25 05/18/2015 23:38:40 71.93,-170.95 52.26 0.71 18
4 05/19/2015 00:29:20 -71.82, -3.50 127.86 05/19/2015 00:28:10 -71.81, -3.53 127.89 1.51 70
5 05/21/2015 04:21:46 71.99, 118.11 51.85 05/21/2015 04:22:57 71.99, 118.08 51.85 1.18 71
6 05/21/2015 05:12:44 -71.91, -74.48 128.24 05/21/2015 05:12:26 -71.92, -74.40 128.23 2.96 18
7 05/23/2015 09:56:07 -71.96,-145.39 128.63 05/23/2015 09:56:43 -71.96,-145.41 128.63 0.91 36
8 05/23/2015 10:47:09 71.88, 22.01 51.29 05/23/2015 10:46:10 71.87, 22.07 51.27 2.52 59
9 05/25/2015 14:39:42 -72.63, 142.45 128.40 05/25/2015 14:40:50 -72.51, 144.50 128.46 69.85 68
10 05/25/2015 15:30:32 71.92, -48.87 50.92 05/25/2015 15:30:26 71.93, -48.89 50.93 1.71 6
11 05/25/2015 16:21:15 -71.13, 119.86 129.83 05/25/2015 16:20:08 -71.17, 117.48 129.87 85.60 67
12 05/27/2015 20:13:56 72.02,-119.87 50.64 05/27/2015 20:14:41 72.03,-119.79 50.65 2.85 45
13 05/27/2015 21:04:52 -71.92, 47.58
